Time,TemperatureF,DewpointF,PressureIn,WindDirection,WindDirectionDegrees,WindSpeedMPH,WindSpeedGustMPH,Humidity,HourlyPrecipIn,Conditions,Clouds,dailyrainin,SoftwareType,DateUTC
2013-07-22 00:10:00,72.5,57.3,29.94,SSW,202,2.2,-999.0,59,-99.99,,,0.00,Acu-Link.com,2013-07-22 06:10:00,
2013-07-22 00:26:00,71.8,57.1,29.94,East,90,0.0,-999.0,60,-99.99,,,0.00,Acu-Link.com,2013-07-22 06:26:00,
2013-07-22 00:41:00,71.2,57.1,29.93,ESE,112,3.1,-999.0,61,-99.99,,,0.00,Acu-Link.com,2013-07-22 06:41:00,
2013-07-22 00:56:00,71.4,57.7,29.94,East,90,2.2,-999.0,62,-99.99,,,0.00,Acu-Link.com,2013-07-22 06:56:00,
2013-07-22 01:11:00,71.4,57.7,29.93,ENE,67,2.7,-999.0,62,-99.99,,,0.00,Acu-Link.com,2013-07-22 07:11:00,
2013-07-22 01:26:00,71.4,57.7,29.93,NE,45,2.2,-999.0,62,-99.99,,,0.00,Acu-Link.com,2013-07-22 07:26:00,
2013-07-22 01:42:00,71.1,57.8,29.92,ENE,67,2.2,-999.0,63,-99.99,,,0.00,Acu-Link.com,2013-07-22 07:42:00,
2013-07-22 01:57:00,70.9,57.6,29.92,North,0,0.0,-999.0,63,-99.99,,,0.00,Acu-Link.com,2013-07-22 07:57:00,
2013-07-22 02:12:00,70.5,57.7,29.92,NNW,337,2.2,-999.0,64,-99.99,,,0.00,Acu-Link.com,2013-07-22 08:12:00,
2013-07-22 02:28:00,70.5,57.7,29.91,NE,45,1.1,-999.0,64,-99.99,,,0.00,Acu-Link.com,2013-07-22 08:28:00,
2013-07-22 02:43:00,70.3,57.6,29.90,NE,45,0.0,-999.0,64,-99.99,,,0.00,Acu-Link.com,2013-07-22 08:43:00,
2013-07-22 02:58:00,69.6,56.9,29.90,SSE,157,0.0,-999.0,64,-99.99,,,0.00,Acu-Link.com,2013-07-22 08:58:00,
2013-07-22 03:13:00,68.5,57.1,29.90,West,270,0.0,-999.0,67,-99.99,,,0.00,Acu-Link.com,2013-07-22 09:13:00,
2013-07-22 03:28:00,68.0,57.0,29.90,SSE,157,0.0,-999.0,68,-99.99,,,0.00,Acu-Link.com,2013-07-22 09:28:00,
2013-07-22 03:43:00,67.6,57.5,29.90,North,0,1.1,-999.0,70,-99.99,,,0.00,Acu-Link.com,2013-07-22 09:43:00,
2013-07-22 03:58:00,68.2,57.2,29.90,West,270,0.0,-999.0,68,-99.99,,,0.00,Acu-Link.com,2013-07-22 09:58:00,
2013-07-22 04:14:00,68.2,56.4,29.90,West,270,0.0,-999.0,66,-99.99,,,0.00,Acu-Link.com,2013-07-22 10:14:00,
2013-07-22 04:29:00,68.7,55.6,29.91,NW,315,3.1,-999.0,63,-99.99,,,0.00,Acu-Link.com,2013-07-22 10:29:00,
2013-07-22 04:44:00,68.7,55.6,29.91,WNW,292,3.8,-999.0,63,-99.99,,,0.00,Acu-Link.com,2013-07-22 10:44:00,
2013-07-22 04:59:00,68.4,55.3,29.90,NE,45,1.6,-999.0,63,-99.99,,,0.00,Acu-Link.com,2013-07-22 10:59:00,
2013-07-22 05:15:00,68.2,56.0,29.91,North,0,2.7,-999.0,65,-99.99,,,0.00,Acu-Link.com,2013-07-22 11:15:00,
2013-07-22 05:30:00,68.4,56.1,29.91,ENE,67,0.0,-999.0,65,-99.99,,,0.00,Acu-Link.com,2013-07-22 11:30:00,
2013-07-22 05:45:00,68.5,55.0,29.91,North,0,2.2,-999.0,62,-99.99,,,0.00,Acu-Link.com,2013-07-22 11:45:00,
2013-07-22 06:00:00,69.4,56.3,29.91,SW,225,0.0,-999.0,63,-99.99,,,0.00,Acu-Link.com,2013-07-22 12:00:00,
2013-07-22 06:15:00,68.7,56.0,29.91,NNW,337,1.6,-999.0,64,-99.99,,,0.00,Acu-Link.com,2013-07-22 12:15:00,
2013-07-22 06:31:00,68.5,55.9,29.92,NE,45,2.2,-999.0,64,-99.99,,,0.00,Acu-Link.com,2013-07-22 12:31:00,
2013-07-22 06:46:00,71.8,56.7,29.93,NE,45,2.7,-999.0,59,-99.99,,,0.00,Acu-Link.com,2013-07-22 12:46:00,
2013-07-22 07:01:00,73.4,56.7,29.93,ESE,112,1.6,-999.0,56,-99.99,,,0.00,Acu-Link.com,2013-07-22 13:01:00,
2013-07-22 07:16:00,72.7,56.6,29.93,ESE,112,2.2,-999.0,57,-99.99,,,0.00,Acu-Link.com,2013-07-22 13:16:00,
2013-07-22 07:31:00,73.0,56.9,29.93,ESE,112,0.0,-999.0,57,-99.99,,,0.00,Acu-Link.com,2013-07-22 13:31:00,
2013-07-22 07:46:00,74.5,57.2,29.94,NE,45,3.1,-999.0,55,-99.99,,,0.00,Acu-Link.com,2013-07-22 13:46:00,
2013-07-22 08:02:00,75.9,56.5,29.93,ENE,67,2.2,-999.0,51,-99.99,,,0.00,Acu-Link.com,2013-07-22 14:02:00,
2013-07-22 08:17:00,80.1,56.8,29.95,SSE,157,3.8,-999.0,45,-99.99,,,0.00,Acu-Link.com,2013-07-22 14:17:00,
2013-07-22 08:32:00,81.3,57.3,29.95,East,90,3.8,-999.0,44,-99.99,,,0.00,Acu-Link.com,2013-07-22 14:32:00,
2013-07-22 08:47:00,83.8,58.3,29.95,ESE,112,2.7,-999.0,42,-99.99,,,0.00,Acu-Link.com,2013-07-22 14:47:00,
2013-07-22 09:02:00,85.8,58.0,29.93,NE,45,3.8,-999.0,39,-99.99,,,0.00,Acu-Link.com,2013-07-22 15:02:00,
2013-07-22 09:18:00,85.8,58.0,29.94,South,180,1.6,-999.0,39,-99.99,,,0.00,Acu-Link.com,2013-07-22 15:18:00,
2013-07-22 09:33:00,82.0,57.9,29.94,South,180,2.2,-999.0,44,-99.99,,,0.00,Acu-Link.com,2013-07-22 15:33:00,
2013-07-22 09:48:00,81.1,57.1,29.94,East,90,2.7,-999.0,44,-99.99,,,0.00,Acu-Link.com,2013-07-22 15:48:00,
2013-07-22 10:03:00,82.4,57.6,29.94,South,180,3.1,-999.0,43,-99.99,,,0.00,Acu-Link.com,2013-07-22 16:03:00,
2013-07-22 10:19:00,84.9,58.6,29.94,South,180,2.7,-999.0,41,-99.99,,,0.00,Acu-Link.com,2013-07-22 16:19:00,
2013-07-22 10:34:00,81.9,57.8,29.94,SSE,157,2.7,-999.0,44,-99.99,,,0.00,Acu-Link.com,2013-07-22 16:34:00,
2013-07-22 10:49:00,84.2,58.6,29.93,ESE,112,2.7,-999.0,42,-99.99,,,0.00,Acu-Link.com,2013-07-22 16:49:00,
2013-07-22 11:04:00,84.7,57.7,29.93,SE,135,4.3,-999.0,40,-99.99,,,0.00,Acu-Link.com,2013-07-22 17:04:00,
2013-07-22 11:19:00,85.8,58.0,29.93,SSE,157,3.1,-999.0,39,-99.99,,,0.00,Acu-Link.com,2013-07-22 17:19:00,
2013-07-22 11:35:00,84.2,57.2,29.93,South,180,3.8,-999.0,40,-99.99,,,0.00,Acu-Link.com,2013-07-22 17:35:00,
2013-07-22 11:50:00,85.3,56.8,29.92,South,180,3.1,-999.0,38,-99.99,,,0.00,Acu-Link.com,2013-07-22 17:50:00,
2013-07-22 12:05:00,85.5,56.9,29.92,SSE,157,5.8,-999.0,38,-99.99,,,0.00,Acu-Link.com,2013-07-22 18:05:00,
2013-07-22 12:20:00,85.6,57.1,29.91,South,180,3.8,-999.0,38,-99.99,,,0.00,Acu-Link.com,2013-07-22 18:20:00,
2013-07-22 12:35:00,86.9,56.7,29.91,SE,135,4.3,-999.0,36,-99.99,,,0.00,Acu-Link.com,2013-07-22 18:35:00,
2013-07-22 12:51:00,87.4,56.4,29.91,ESE,112,4.7,-999.0,35,-99.99,,,0.00,Acu-Link.com,2013-07-22 18:51:00,
2013-07-22 13:06:00,89.4,55.6,29.90,East,90,3.8,-999.0,32,-99.99,,,0.00,Acu-Link.com,2013-07-22 19:06:00,
2013-07-22 13:21:00,93.4,56.3,29.89,ENE,67,3.1,-999.0,29,-99.99,,,0.00,Acu-Link.com,2013-07-22 19:21:00,
2013-07-22 13:36:00,91.9,54.1,29.89,SW,225,1.6,-999.0,28,-99.99,,,0.00,Acu-Link.com,2013-07-22 19:36:00,
2013-07-22 13:52:00,92.1,53.3,29.88,SSW,202,1.6,-999.0,27,-99.99,,,0.00,Acu-Link.com,2013-07-22 19:52:00,
2013-07-22 14:07:00,94.6,52.2,29.87,SSE,157,5.8,-999.0,24,-99.99,,,0.00,Acu-Link.com,2013-07-22 20:07:00,
2013-07-22 14:22:00,95.2,51.5,29.86,West,270,2.7,-999.0,23,-99.99,,,0.00,Acu-Link.com,2013-07-22 20:22:00,
2013-07-22 14:37:00,95.9,52.1,29.85,South,180,2.7,-999.0,23,-99.99,,,0.00,Acu-Link.com,2013-07-22 20:37:00,
2013-07-22 14:52:00,96.6,52.7,29.85,SSE,157,5.1,-999.0,23,-99.99,,,0.00,Acu-Link.com,2013-07-22 20:52:00,
2013-07-22 15:07:00,96.8,51.6,29.84,SE,135,5.8,-999.0,22,-99.99,,,0.00,Acu-Link.com,2013-07-22 21:07:00,
2013-07-22 15:23:00,96.4,51.3,29.83,South,180,1.6,-999.0,22,-99.99,,,0.00,Acu-Link.com,2013-07-22 21:23:00,
2013-07-22 15:38:00,97.2,50.7,29.82,SSE,157,5.8,-999.0,21,-99.99,,,0.00,Acu-Link.com,2013-07-22 21:38:00,
2013-07-22 15:53:00,98.1,50.1,29.82,WSW,247,2.7,-999.0,20,-99.99,,,0.00,Acu-Link.com,2013-07-22 21:53:00,
2013-07-22 16:08:00,99.1,49.6,29.82,SE,135,3.8,-999.0,19,-99.99,,,0.00,Acu-Link.com,2013-07-22 22:08:00,
2013-07-22 16:23:00,96.6,48.9,29.82,SSW,202,3.8,-999.0,20,-99.99,,,0.00,Acu-Link.com,2013-07-22 22:23:00,
2013-07-22 16:39:00,95.2,50.3,29.81,East,90,2.7,-999.0,22,-99.99,,,0.00,Acu-Link.com,2013-07-22 22:39:00,
2013-07-22 16:54:00,97.3,49.5,29.81,SSW,202,3.8,-999.0,20,-99.99,,,0.00,Acu-Link.com,2013-07-22 22:54:00,
2013-07-22 17:09:00,97.3,49.5,29.81,SSE,157,6.7,-999.0,20,-99.99,,,0.00,Acu-Link.com,2013-07-22 23:09:00,
2013-07-22 17:24:00,95.7,46.8,78.66,SW,225,5.1,-999.0,19,-99.99,,,0.00,Acu-Link.com,2013-07-22 23:24:00,
2013-07-22 17:39:00,96.1,47.1,29.80,East,90,2.7,-999.0,19,-99.99,,,0.00,Acu-Link.com,2013-07-22 23:39:00,
2013-07-22 17:55:00,98.8,47.8,29.80,SW,225,1.6,-999.0,18,-99.99,,,0.00,Acu-Link.com,2013-07-22 23:55:00,
2013-07-22 18:10:00,94.8,48.7,29.80,South,180,3.8,-999.0,21,-99.99,,,0.00,Acu-Link.com,2013-07-23 00:10:00,
2013-07-22 18:25:00,93.4,50.0,29.80,SW,225,2.2,-999.0,23,-99.99,,,0.00,Acu-Link.com,2013-07-23 00:25:00,
2013-07-22 18:40:00,92.1,50.1,29.80,SW,225,2.7,-999.0,24,-99.99,,,0.00,Acu-Link.com,2013-07-23 00:40:00,
2013-07-22 18:56:00,93.4,51.1,29.79,SSE,157,4.7,-999.0,24,-99.99,,,0.00,Acu-Link.com,2013-07-23 00:56:00,
2013-07-22 19:11:00,94.6,51.0,29.79,SSE,157,3.1,-999.0,23,-99.99,,,0.00,Acu-Link.com,2013-07-23 01:11:00,
2013-07-22 19:26:00,93.9,51.6,29.80,SSE,157,6.3,-999.0,24,-99.99,,,0.00,Acu-Link.com,2013-07-23 01:26:00,
2013-07-22 19:41:00,91.0,51.3,29.80,South,180,2.2,-999.0,26,-99.99,,,0.00,Acu-Link.com,2013-07-23 01:41:00,
2013-07-22 19:56:00,89.6,52.1,29.80,SSE,157,3.1,-999.0,28,-99.99,,,0.00,Acu-Link.com,2013-07-23 01:56:00,
2013-07-22 20:12:00,88.3,52.0,29.79,South,180,3.8,-999.0,29,-99.99,,,0.00,Acu-Link.com,2013-07-23 02:12:00,
2013-07-22 20:27:00,88.2,51.9,29.81,West,270,5.8,-999.0,29,-99.99,,,0.00,Acu-Link.com,2013-07-23 02:27:00,
2013-07-22 20:42:00,87.3,50.1,29.81,West,270,3.8,-999.0,28,-99.99,,,0.00,Acu-Link.com,2013-07-23 02:42:00,
2013-07-22 20:57:00,86.9,49.8,29.83,South,180,2.2,-999.0,28,-99.99,,,0.00,Acu-Link.com,2013-07-23 02:57:00,
2013-07-22 21:12:00,86.0,50.0,29.84,South,180,2.7,-999.0,29,-99.99,,,0.00,Acu-Link.com,2013-07-23 03:12:00,
2013-07-22 21:28:00,85.6,50.6,29.84,SW,225,2.2,-999.0,30,-99.99,,,0.00,Acu-Link.com,2013-07-23 03:28:00,
2013-07-22 21:43:00,84.9,50.9,29.86,SSE,157,1.6,-999.0,31,-99.99,,,0.00,Acu-Link.com,2013-07-23 03:43:00,
2013-07-22 21:58:00,84.6,51.4,29.86,WSW,247,2.7,-999.0,32,-99.99,,,0.00,Acu-Link.com,2013-07-23 03:58:00,
2013-07-22 22:13:00,84.0,51.8,29.86,West,270,2.2,-999.0,33,-99.99,,,0.00,Acu-Link.com,2013-07-23 04:13:00,
2013-07-22 22:28:00,84.0,51.8,29.86,West,270,4.7,-999.0,33,-99.99,,,0.00,Acu-Link.com,2013-07-23 04:28:00,
2013-07-22 22:44:00,83.1,52.6,29.86,East,90,5.1,-999.0,35,-99.99,,,0.00,Acu-Link.com,2013-07-23 04:44:00,
2013-07-22 22:59:00,82.4,52.7,29.87,ESE,112,4.7,-999.0,36,-99.99,,,0.00,Acu-Link.com,2013-07-23 04:59:00,
2013-07-22 23:14:00,80.8,54.2,29.87,East,90,4.7,-999.0,40,-99.99,,,0.00,Acu-Link.com,2013-07-23 05:14:00,
2013-07-22 23:29:00,80.4,53.9,29.87,East,90,1.6,-999.0,40,-99.99,,,0.00,Acu-Link.com,2013-07-23 05:29:00,
2013-07-22 23:45:00,80.1,53.5,29.88,ESE,112,1.1,-999.0,40,-99.99,,,0.00,Acu-Link.com,2013-07-23 05:45:00,